| time (UTC) | temp F | wind direction | speed MPH | gust MPH | rain 1hr in | rain 24hr in | rain mn in | humidity % | barometer mb |
| 20260906232251 | 72 | 92 | 5.0 | 7.0 | 0.00 | 0.00 | 0.00 | 32 | 980.3 |
| 20260906230607 | 73 | 110 | 6.0 | 7.0 | 0.00 | 0.00 | 0.00 | 31 | 980.3 |
| 20260906224923 | 73 | 91 | 3.0 | 12.0 | 0.00 | 0.00 | 0.00 | 31 | 979.8 |
| 20260906224820 | 73 | 67 | 12.0 | 12.0 | 0.00 | 0.00 | 0.00 | 31 | 979.8 |
| 20260906224215 | 73 | 107 | 4.0 | 11.0 | 0.00 | 0.00 | 0.00 | 31 | 979.8 |
| 20260906222533 | 73 | 77 | 10.0 | 12.0 | 0.00 | 0.00 | 0.00 | 32 | 980.2 |
| 20260906220747 | 74 | 69 | 14.0 | 14.0 | 0.00 | 0.00 | 0.00 | 31 | 980.5 |
| 20260906215205 | 74 | 71 | 14.0 | 14.0 | 0.00 | 0.00 | 0.00 | 30 | 980.5 |
| 20260906214834 | 74 | 74 | 13.0 | 13.0 | 0.00 | 0.00 | 0.00 | 30 | 980.5 |
| 20260906213811 | 75 | 117 | 5.0 | 12.0 | 0.00 | 0.00 | 0.00 | 30 | 980.8 |
| 20260906213504 | 75 | 109 | 4.0 | 10.0 | 0.00 | 0.00 | 0.00 | 30 | 980.7 |
| 20260906213331 | 75 | 138 | 12.0 | 12.0 | 0.00 | 0.00 | 0.00 | 30 | 980.8 |
| 20260906205456 | 76 | 133 | 12.0 | 12.0 | 0.00 | 0.00 | 0.00 | 28 | 980.4 |
| 20260906204026 | 76 | 106 | 3.0 | 11.0 | 0.00 | 0.00 | 0.00 | 28 | 980.3 |
| 20260906202713 | 77 | 143 | 3.0 | 9.0 | 0.00 | 0.00 | 0.00 | 28 | 980.4 |
| 20260906201029 | 77 | 110 | 7.0 | 10.0 | 0.00 | 0.00 | 0.00 | 27 | 980.6 |
| 20260906195347 | 77 | 107 | 5.0 | 8.0 | 0.00 | 0.00 | 0.00 | 26 | 980.5 |
| 20260906174002 | 75 | 58 | 3.0 | 4.0 | 0.00 | 0.00 | 0.00 | 28 | 981.8 |
| 20260906163308 | 68 | 67 | 1.0 | 3.0 | 0.00 | 0.00 | 0.00 | 30 | 982.4 |
| 20260906161626 | 67 | 114 | 1.0 | 2.0 | 0.00 | 0.00 | 0.00 | 31 | 982.4 |
| 20260906150933 | 62 | 88 | 0.0 | 3.0 | 0.00 | 0.00 | 0.00 | 33 | 983.1 |
| 20260906145250 | 61 | 242 | 2.0 | 2.0 | 0.00 | 0.00 | 0.00 | 33 | 982.9 |
| 20260906143607 | 60 | 138 | 1.0 | 1.0 | 0.00 | 0.00 | 0.00 | 34 | 983.0 |
| 20260906140241 | 60 | 3 | 0.0 | 3.0 | 0.00 | 0.00 | 0.00 | 34 | 982.8 |
| 20260906134559 | 60 | 16 | 1.0 | 3.0 | 0.00 | 0.00 | 0.00 | 33 | 982.8 |
| 20260906132915 | 60 | 136 | 0.0 | 1.0 | 0.00 | 0.00 | 0.00 | 33 | 982.8 |
| 20260906131232 | 60 | 279 | 0.0 | 1.0 | 0.00 | 0.00 | 0.00 | 33 | 982.6 |
| 20260906123907 | 61 | 232 | 0.0 | 0.0 | 0.00 | 0.00 | 0.00 | 32 | 982.0 |
| 20260906114856 | 61 | 231 | 0.0 | 0.0 | 0.00 | 0.00 | 0.00 | 32 | 982.1 |
| 20260906113213 | 62 | 46 | 1.0 | 2.0 | 0.00 | 0.00 | 0.00 | 32 | 981.9 |
| 20260906111531 | 62 | 231 | 0.0 | 0.0 | 0.00 | 0.00 | 0.00 | 32 | 981.9 |
| 20260906105847 | 62 | 351 | 1.0 | 2.0 | 0.00 | 0.00 | 0.00 | 32 | 981.9 |
| 20260906102524 | 63 | 42 | 0.0 | 1.0 | 0.00 | 0.00 | 0.00 | 31 | 981.8 |
| 20260906100839 | 63 | 37 | 1.0 | 3.0 | 0.00 | 0.00 | 0.00 | 31 | 981.7 |
| 20260906095156 | 63 | 41 | 1.0 | 2.0 | 0.00 | 0.00 | 0.00 | 31 | 981.6 |
| 20260906093513 | 64 | 337 | 0.0 | 1.0 | 0.00 | 0.00 | 0.00 | 30 | 981.6 |
| 20260906091831 | 64 | 40 | 0.0 | 1.0 | 0.00 | 0.00 | 0.00 | 30 | 981.5 |
| 20260906084505 | 65 | 338 | 1.0 | 2.0 | 0.00 | 0.00 | 0.00 | 29 | 981.4 |
| 20260906082821 | 65 | 334 | 0.0 | 1.0 | 0.00 | 0.00 | 0.00 | 29 | 981.4 |
| 20260906072128 | 67 | 24 | 1.0 | 2.0 | 0.00 | 0.00 | 0.00 | 28 | 981.4 |
| 20260906054111 | 70 | 41 | 0.0 | 3.0 | 0.00 | 0.00 | 0.00 | 26 | 981.1 |
| 20260906052428 | 71 | 337 | 0.0 | 1.0 | 0.00 | 0.00 | 0.00 | 25 | 980.9 |
| 20260906045102 | 71 | 332 | 0.0 | 0.0 | 0.00 | 0.00 | 0.00 | 24 | 980.9 |
| 20260906043418 | 72 | 340 | 0.0 | 2.0 | 0.00 | 0.00 | 0.00 | 24 | 980.8 |
| 20260906041736 | 72 | 281 | 1.0 | 1.0 | 0.00 | 0.00 | 0.00 | 23 | 980.6 |
| 20260906040052 | 73 | 40 | 0.0 | 1.0 | 0.00 | 0.00 | 0.00 | 23 | 980.5 |
| 20260906034410 | 74 | 337 | 0.0 | 2.0 | 0.00 | 0.00 | 0.00 | 22 | 980.3 |
| 20260906032726 | 75 | 338 | 2.0 | 3.0 | 0.00 | 0.00 | 0.00 | 21 | 980.0 |
| 20260906025400 | 76 | 297 | 1.0 | 3.0 | 0.00 | 0.00 | 0.00 | 21 | 979.5 |
| 20260906014708 | 80 | 202 | 1.0 | 3.0 | 0.00 | 0.00 | 0.00 | 19 | 978.6 |
| 20260906000649 | 86 | 232 | 1.0 | 3.0 | 0.00 | 0.00 | 0.00 | 16 | 978.5 |
| 20260905235007 | 86 | 211 | 1.0 | 3.0 | 0.00 | 0.00 | 0.00 | 16 | 978.5 |